STARLINK-11471, 62225

Orbit data source: Space-Track

STARLINK-11471, 62225 is a payload satellite owned by SpaceX/Seattle (US) in LEO that was launched on Thu, 05 Dec 2024 UTC via an FALCON 9 launch vehicle from the Air Force Western Test Range (AFWTR). Payload-class satellites include a variety of spacecraft equipped with specific instruments for various scientific and technological missions. These include communications satellites like Starlink; space stations such as the ISS; scientific satellites like the Hubble; Earth observation satellites from companies like Planet Labs, Umbra, and HawkEye 360; GPS; miniature CubeSats for education and research; and military/defense satellites.

Loading next visibility...
Identifier
62225, 2024-231H
Orbit
LEO
Country
Flag of USUS
Related business
Manufacturer
SpaceX/Seattle
Mission
Operational Commercial Communications
Bus & Motor
STARLINK V2MD, Unknown motor
Mass
960 kg wet, ~910 kg dry
Launch date (UTC)
2024-12-05 (9 months ago)
Launch vehicle
FALCON 9
Launch site
Air Force Western Test Range (AFWTR)
Object type
Payload
Rocket body
Debris
Shape & HBR
Box + 2 Pan, 14.5 m
Radar Cross Section
36.964 m², Large (>1 m²)

Expand to show TLE details & history
Last TLE update: 23 hours ago

TLE from 23 hours ago
0 STARLINK-11471
1 62225U 24231H   25257.44799061  .00096309  00000-0  78973-3 0  9994
2 62225  53.1574 249.8701 0001119  97.3502 262.7643 15.69736482 45733
Epoch: 2025-09-14T10:45Z
TLE epoch observation values (Epoch: 2025-09-14T10:45:06.388Z)
Latitude
-0.00004°
Longitude
94.9266°
Altitude
360.661 km
Speed
7.694 km/s
True Right ascension
16h 39m 28s
True Declination
0° 00' 00"
Sunlit
Object was in daylight at epoch
Visualization orbit readout
Latitude
Unknown
Longitude
Unknown
Altitude
Unknown
Speed
Unknown
Apparent Right ascension
Unknown
Apparent Declination
Unknown
Sunlit
N/A
Visualization observer readout
Local Sidereal Time
02:14:55
Azimuth
Unknown
Elevation
Unknown
Doppler factor
Unknown
Orbital elements
Apogee altitude
360.666 km
Perigee altitude
359.158 km
Semi-major axis
6,738.049 km
Eccentricity
0.00011
Inclination
53.1574°
RAAN
249.8701°
Arg. of periapsis
97.3502°
True anomaly
262.75158°
Mean anomaly
262.7643°
Eccentric anomaly
262.75794°
Mean motion
3.92412 °/min
Orbital period
91.74 mins
BSTAR
0.00078973
Loading maneuver chart data...
Computing Atmospheric mass density...
Loading historical data...
Loading historical data...
Loading historical data...
Loading historical data...
Loading historical data...
Loading historical data...
Loading historical data...

Documentation

Showing up to 5 results
|